[[{"header":{"parameterUnit":"m.s-1","parameterCategory":2,"la1":30.2991,"la2":30.254,"lo1":-89.0895,"lo2":-89.0444,"dy":0.0017,"dx":0.0017,"nx":28,"ny":28,"refTime":"2025-08-14T21:00:00:Z","depth":"0","parameterNumber":2,"parameterNumberName":"U-component_of_CURRENTS"},"data":[0,0,0,0,0,0,0,0,0,0,0,0,0,0,0,0,0,0,0,0,0,0,0,0,0,0,0,0,0,0,0,0,0,0,0,0,0,0,0,0,0,0,0,0,0,0,0,0,0,0,0,0,0,0,0,0,0,0,0.3836,0.3835,0,0.3598,0.3595,0.3591,0.3525,0.3528,0.353,0.3533,0.3743,0.3746,0.3749,0,0,0,0,0,0,0,0,0,0,0,0,0,0.3862,0.3863,0.3836,0.3835,0.3833,0.3599,0.3595,0.359,0.3525,0.3528,0.3531,0.3534,0.3742,0.3746,0.3749,0,0,0,0,0,0,0,0,0,0,0,0,0,0.3748,0.3863,0.3837,0.3782,0.3775,0.36,0.3594,0.3589,0.3524,0.3528,0.3532,0.3535,0.374,0.3745,0.375,0.3703,0,0,0.3765,0.3767,0,0,0,0,0,0,0,0,0.3755,0.3746,0.3791,0.3785,0.3778,0.3607,0.3681,0.3654,0.3523,0.3605,0.3533,0.3537,0.3745,0.3749,0.3671,0.3713,0.3722,0.3765,0.3768,0.377,0.3771,0,0,0,0,0,0,0,0.3764,0.3754,0.3729,0.379,0.3781,0.3642,0.3632,0.367,0.3655,0.3598,0.3596,0.359,0.3743,0.3666,0.3677,0.3725,0.3765,0.3769,0.3772,0.3774,0.3931,0.3933,0,0,0,0,0,0,0.3835,0.3763,0.3737,0.3723,0.3791,0.3641,0.3629,0.3647,0.3644,0.3648,0.3587,0.3588,0.3655,0.3671,0.3685,0.3813,0.377,0.3775,0.3777,0.393,0.3932,0.3933,0,0,0,0,0,0,0.3837,0.3836,0.3746,0.3746,0.3727,0.3641,0.3658,0.3641,0.3574,0.3633,0.3643,0.3543,0.3659,0.3678,0.3761,0.3816,0.3777,0.3781,0.3929,0.393,0.3932,0.3955,0,0,0,0,0,0,0.3839,0.3838,0.3844,0.3753,0.3731,0.3662,0.3656,0.3634,0.357,0.3569,0.3599,0.362,0.3664,0.3753,0.3765,0.3822,0.3785,0.3927,0.3929,0.3932,0.3953,0.3958,0.3962,0,0,0,0,0,0.3841,0.385,0.3847,0.3842,0.3754,0.3662,0.3635,0.3575,0.3565,0.3527,0.3579,0.362,0.3778,0.3757,0.3772,0.3831,0.3926,0.3929,0.3931,0.3951,0.3957,0.3962,0,0,0,0,0,0,0.3836,0.3842,0.3837,0.3842,0.3769,0.3657,0.3625,0.3565,0.3548,0.3587,0.3623,0.3647,0.3746,0.377,0.3745,0.3882,0.3863,0.3869,0.3873,0.3879,0.3884,0.3866,0.3789,0,0,0,0,0,0.3849,0.3879,0.3825,0.3821,0.3807,0.3706,0.3653,0.3618,0.36,0.3587,0.3607,0.3671,0.3754,0.3804,0.3861,0.392,0.3905,0.3971,0.3975,0.3979,0.3974,0.4003,0.4009,0.3942,0.3942,0.3942,0,0,0.3836,0.3851,0.3857,0.3823,0.3773,0.3745,0.3682,0.3631,0.3623,0.363,0.3644,0.3686,0.3772,0.3855,0.3901,0.3893,0.3981,0.3982,0.3985,0.3978,0.4006,0.4013,0.4018,0.3944,0.3944,0.3944,0,0,0.385,0.3857,0.3892,0.3853,0.3817,0.3762,0.3755,0.3662,0.365,0.366,0.3693,0.3752,0.3829,0.3893,0.3948,0.4003,0.4003,0.4035,0.4051,0.4079,0.4085,0.4089,0.4035,0.4034,0.404,0.404,0.404,0,0.3833,0.3875,0.3866,0.3883,0.385,0.3786,0.377,0.3745,0.3685,0.3693,0.3702,0.3785,0.3855,0.3965,0.3996,0.4017,0.3998,0.4026,0.4084,0.4089,0.4093,0.4036,0.4036,0.4041,0.4041,0.4041,0.4041,0,0.387,0.3889,0.3901,0.3928,0.3884,0.3855,0.384,0.3818,0.3803,0.3776,0.3844,0.3892,0.3937,0.3983,0.4021,0.4093,0.4054,0.4083,0.4066,0.4101,0.4038,0.4037,0.4043,0.4043,0.4042,0.4042,0,0,0.3849,0.3918,0.3912,0.3923,0.3902,0.386,0.3898,0.3877,0.3906,0.3887,0.391,0.4019,0.3994,0.405,0.4082,0.4115,0.4125,0.4112,0.4113,0.4047,0.4123,0.3933,0.3913,0.4167,0.4168,0.4169,0.405,0,0.3859,0.3905,0.3929,0.3922,0.3925,0.3904,0.3933,0.3928,0.3941,0.3961,0.401,0.4061,0.4043,0.4073,0.4098,0.4131,0.4131,0.415,0.4108,0.4105,0.3925,0.391,0.3721,0.3586,0.4049,0.4048,0.4048,0,0.387,0.3898,0.3915,0.3936,0.3936,0.3931,0.3938,0.3956,0.4014,0.4031,0.4057,0.4087,0.4121,0.4122,0.4121,0.4131,0.4121,0.413,0.4126,0.3942,0.3914,0.3636,0.3566,0.3519,0.4046,0.4046,0.4047,0,0.3832,0.387,0.3882,0.3879,0.3911,0.3922,0.3923,0.3968,0.3978,0.4061,0.4062,0.4115,0.4102,0.413,0.408,0.4126,0.4056,0.413,0.3931,0.3915,0.3739,0.3705,0.361,0.4135,0.4136,0.4136,0.4136,0,0.3818,0.3811,0.3872,0.3872,0.3878,0.3905,0.3918,0.3955,0.3993,0.3983,0.4071,0.4039,0.4108,0.4062,0.4071,0.3924,0.4023,0.3903,0.3878,0.3734,0.3702,0.3642,0.3644,0.4131,0.4132,0.4133,0.4134,0,0.3764,0.3807,0.3825,0.387,0.387,0.3871,0.3862,0.3868,0.3924,0.3911,0.3925,0.395,0.3874,0.3881,0.3888,0.3842,0.3674,0.3729,0.3496,0.3445,0.3243,0.3252,0.2996,0.2922,0.3523,0.3517,0.3513,0,0.3732,0.375,0.3804,0.3786,0.3799,0.3791,0.3772,0.3819,0.3809,0.381,0.3786,0.3737,0.3628,0.3508,0.346,0.3383,0.3399,0.3183,0.3262,0.3163,0.316,0.3113,0.3071,0.3026,0.3018,0.3011,0.3006,0,0.3657,0.3703,0.3723,0.3706,0.3686,0.3632,0.3613,0.3588,0.3618,0.3578,0.3448,0.337,0.3254,0.3061,0.2985,0.2951,0.3023,0.3042,0.3036,0.2814,0.2663,0.2601,0.3133,0.2947,0.2953,0.2957,0.296,0.2963,0.3582,0.3598,0.3631,0.358,0.3536,0.342,0.3311,0.3284,0.3184,0.3054,0.3102,0.2894,0.2808,0.2654,0.2597,0.2444,0.2556,0.243,0.2459,0.2429,0.2317,0.2655,0.2391,0.2393,0.2395,0.2397,0.2399,0,0.3466,0.3485,0.3461,0.3377,0.3208,0.3242,0.3138,0.2986,0.2776,0.2731,0.2568,0.2354,0.2185,0.2155,0.2023,0.1923,0.1913,0.1887,0.1847,0.1852,0.2227,0.217,0.1727,0.1727,0.1727,0.1728,0.1728,0.1728,0.3403,0.3366,0.3358,0.3046,0.2931,0.2669,0.2552,0.239,0.2316,0.2037,0.1879,0.1837,0.1861,0.1763,0.1631,0.1591,0.156,0.1393,0.1505,0.1855,0.1912,0.1967,0.1916,0.1427,0.1427,0.1051,0.1048,0.1046]},{"header":{"parameterUnit":"m.s-1","parameterCategory":2,"la1":30.2991,"la2":30.254,"lo1":-89.0895,"lo2":-89.0444,"dy":0.0017,"dx":0.0017,"nx":28,"ny":28,"refTime":"2025-08-14T21:00:00:Z","depth":"0","parameterNumber":3,"parameterNumberName":"V-component_of_CURRENTS"},"data":[0,0,0,0,0,0,0,0,0,0,0,0,0,0,0,0,0,0,0,0,0,0,0,0,0,0,0,0,0,0,0,0,0,0,0,0,0,0,0,0,0,0,0,0,0,0,0,0,0,0,0,0,0,0,0,0,0,0,0.0056,0.0055,0,0.0049,0.0049,0.005,0.005,0.0049,0.0049,0.0049,0.0008,0.0007,0.0006,0,0,0,0,0,0,0,0,0,0,0,0,0,0.0139,0.0137,0.0056,0.0055,0.0055,0.0049,0.0049,0.005,0.005,0.0049,0.0049,0.0048,0.0008,0.0007,0.0006,0,0,0,0,0,0,0,0,0,0,0,0,0,0.0119,0.0137,0.0056,0.005,0.005,0.0049,0.0049,0.005,0.005,0.0049,0.0049,0.0048,0.0008,0.0007,0.0006,0.001,0,0,0.0003,0.0002,0,0,0,0,0,0,0,0,0.012,0.0116,0.0052,0.0051,0.005,0.0045,0.0063,0.0033,0.005,0.0055,0.0049,0.0048,0.0014,0.0013,0.002,0.0008,0.0006,0.0002,0.0002,0.0001,0.0001,0,0,0,0,0,0,0,0.0121,0.0117,0.0058,0.0051,0.005,0.0072,0.0069,0.0059,0.0041,0.0054,0.0053,0.0045,0.0014,0.0021,0.0019,0.0005,0.0002,0.0001,0.0001,0.0,0.002,0.0021,0,0,0,0,0,0,0.0109,0.0118,0.0058,0.0057,0.0079,0.007,0.0067,0.0051,0.0042,0.0038,0.0045,0.0045,0.0023,0.002,0.0017,0.0035,0.0001,0.0,-0.0,0.0019,0.002,0.0022,0,0,0,0,0,0,0.0111,0.0103,0.0058,0.0084,0.0079,0.0068,0.0052,0.0051,0.0053,0.0034,0.0031,0.0046,0.0023,0.0019,0.0013,0.0033,-0.0,-0.0001,0.0017,0.0019,0.0021,0.0061,0,0,0,0,0,0,0.0113,0.0104,0.0105,0.0083,0.0077,0.0062,0.0052,0.0051,0.0046,0.0046,0.0034,0.003,0.0022,0.0015,0.0012,0.003,-0.0002,0.0016,0.0018,0.002,0.0058,0.0064,0.0069,0,0,0,0,0,0.0116,0.0115,0.0105,0.0098,0.0073,0.0062,0.0063,0.0057,0.0047,0.0055,0.0046,0.003,0.0027,0.0014,0.001,0.003,0.0015,0.0018,0.002,0.0056,0.0063,0.0069,0,0,0,0,0,0,0.0154,0.0114,0.0102,0.0089,0.0077,0.0061,0.0067,0.0056,0.0057,0.005,0.0036,0.0032,0.004,0.0028,0.0014,0.0045,0.0022,0.0024,0.0051,0.0057,0.0062,0.0073,-0.0003,0,0,0,0,0,0.016,0.0151,0.0115,0.0112,0.0099,0.0082,0.0081,0.0068,0.0056,0.0056,0.0051,0.0047,0.0051,0.0046,0.0049,0.0054,0.0064,0.0068,0.0073,0.0078,0.0086,0.0142,0.0154,0.003,0.003,0.003,0,0,0.0176,0.0153,0.0149,0.012,0.0109,0.0106,0.0082,0.0069,0.0076,0.005,0.0066,0.0063,0.0058,0.0074,0.0076,0.0062,0.0114,0.0081,0.0085,0.0091,0.0146,0.0158,0.0169,0.0032,0.0032,0.0032,0,0,0.0199,0.0176,0.0173,0.0162,0.0134,0.0125,0.0118,0.0097,0.0096,0.0099,0.0093,0.0102,0.01,0.0112,0.0114,0.0149,0.0144,0.0148,0.0178,0.0232,0.0243,0.0253,0.0261,0.0271,0.0147,0.0147,0.0147,0,0.022,0.0206,0.0176,0.017,0.0169,0.0132,0.0135,0.013,0.0117,0.0126,0.0108,0.0139,0.0125,0.0161,0.017,0.0162,0.0177,0.0151,0.024,0.025,0.0259,0.0266,0.0277,0.0149,0.0149,0.0149,0.0149,0,0.0234,0.0229,0.0227,0.021,0.021,0.0204,0.0182,0.0186,0.0176,0.0176,0.0204,0.0197,0.022,0.0217,0.0197,0.0257,0.0241,0.0243,0.0223,0.0274,0.0277,0.0288,0.0153,0.0152,0.0151,0.015,0,0,0.0244,0.0241,0.0238,0.0251,0.0227,0.0232,0.0238,0.0245,0.0272,0.0258,0.0311,0.03,0.0299,0.0302,0.029,0.0322,0.0381,0.0306,0.0308,0.0313,0.0476,0.0413,0.0417,0.0405,0.0408,0.041,0.0444,0,0.0261,0.0285,0.0269,0.0299,0.0307,0.0288,0.0314,0.0317,0.0323,0.0368,0.0356,0.0401,0.033,0.0357,0.0373,0.0397,0.0414,0.0369,0.0427,0.0428,0.0366,0.043,0.0411,0.0437,0.0454,0.0456,0.0457,0,0.0258,0.0283,0.0324,0.0359,0.0361,0.0382,0.0426,0.0439,0.0472,0.0482,0.0502,0.0504,0.0535,0.0487,0.0521,0.0498,0.0484,0.0487,0.0489,0.0427,0.0386,0.0394,0.0455,0.0401,0.0473,0.0472,0.0471,0,0.0284,0.031,0.036,0.0368,0.0405,0.0432,0.0454,0.0483,0.0526,0.0572,0.0627,0.0632,0.0678,0.0665,0.0616,0.0595,0.0659,0.0637,0.0557,0.0551,0.0544,0.0533,0.0562,0.0672,0.0672,0.0672,0.0672,0,0.03,0.0331,0.0385,0.0412,0.0489,0.0486,0.0569,0.0583,0.0648,0.0728,0.0699,0.077,0.0734,0.0746,0.068,0.064,0.0704,0.0577,0.0572,0.0552,0.0542,0.0499,0.0458,0.0673,0.0673,0.0673,0.0673,0,0.0321,0.0346,0.0408,0.0474,0.0504,0.0562,0.0653,0.0723,0.0753,0.0867,0.0898,0.0918,0.0918,0.0844,0.0838,0.0739,0.0661,0.0664,0.0609,0.0597,0.0457,0.0418,0.0431,0.0413,0.0601,0.06,0.0599,0,0.0351,0.0385,0.0471,0.0536,0.0575,0.0662,0.0739,0.0781,0.0863,0.0954,0.1032,0.1054,0.1064,0.0984,0.0835,0.071,0.0647,0.0601,0.0552,0.0459,0.0414,0.039,0.0373,0.0553,0.0551,0.055,0.055,0,0.0423,0.0442,0.05,0.0627,0.0721,0.0819,0.0923,0.1001,0.1063,0.1133,0.1214,0.1224,0.1129,0.0991,0.0798,0.07,0.0553,0.0574,0.0529,0.0419,0.0351,0.0327,0.0483,0.0541,0.0542,0.0542,0.0543,0.0543,0.049,0.0541,0.0621,0.0734,0.0839,0.0961,0.1029,0.1131,0.1231,0.1315,0.1329,0.1326,0.113,0.0861,0.0721,0.0466,0.049,0.0394,0.0365,0.0357,0.0312,0.0411,0.0427,0.0428,0.0428,0.0428,0.0428,0,0.0578,0.0629,0.0739,0.0854,0.0957,0.0998,0.1147,0.1194,0.1282,0.1365,0.139,0.1276,0.1037,0.0797,0.045,0.029,0.0252,0.0219,0.0207,0.0209,0.0352,0.032,0.0254,0.0254,0.0254,0.0254,0.0254,0.0254,0.0637,0.073,0.0768,0.0935,0.1008,0.1116,0.1183,0.1244,0.1306,0.135,0.1333,0.1314,0.1138,0.0571,0.0221,0.0143,0.0075,0.0035,0.0021,0.0125,0.014,0.0154,0.0117,0.0009,0.0009,-0.0097,-0.0098,-0.0099]}],[{"header":{"parameterUnit":"m.s-1","parameterCategory":2,"la1":30.2991,"la2":30.254,"lo1":-89.0895,"lo2":-89.0444,"dy":0.0017,"dx":0.0017,"nx":28,"ny":28,"refTime":"2025-08-14T21:00:00:Z","depth":"2","parameterNumber":2,"parameterNumberName":"U-component_of_CURRENTS"},"data":[0,0,0,0,0,0,0,0,0,0,0,0,0,0,0,0,0,0,0,0,0,0,0,0,0,0,0,0,0,0,0,0,0,0,0,0,0,0,0,0,0,0,0,0,0,0,0,0,0,0,0,0,0,0,0,0,0,0,0.1789,0.1793,0,0.1929,0.1927,0.1926,0.1985,0.1989,0.1992,0.1995,0.208,0.2079,0.2078,0,0,0,0,0,0,0,0,0,0,0,0,0,0.1615,0.1614,0.1788,0.1794,0.1799,0.1929,0.1927,0.1926,0.1985,0.1989,0.1993,0.1997,0.208,0.2079,0.2078,0,0,0,0,0,0,0,0,0,0,0,0,0,0.1679,0.1614,0.1787,0.1873,0.1885,0.193,0.1927,0.1925,0.1984,0.1989,0.1994,0.1998,0.208,0.2079,0.2078,0.197,0,0,0.2074,0.2073,0,0,0,0,0,0,0,0,0.1675,0.168,0.1855,0.1868,0.1881,0.1979,0.19,0.1951,0.1983,0.1905,0.1995,0.2001,0.2063,0.2063,0.2023,0.1974,0.1978,0.2074,0.2073,0.2072,0.2072,0,0,0,0,0,0,0,0.167,0.1675,0.1804,0.1861,0.1878,0.1923,0.1932,0.1907,0.1922,0.1912,0.1926,0.2003,0.2065,0.2024,0.2027,0.1979,0.2074,0.2073,0.2072,0.2071,0.219,0.2194,0,0,0,0,0,0,0.1723,0.167,0.1801,0.1813,0.1832,0.1924,0.1933,0.191,0.1925,0.1944,0.1999,0.2006,0.2024,0.2028,0.203,0.2175,0.2072,0.2071,0.207,0.2186,0.2191,0.2195,0,0,0,0,0,0,0.1716,0.1728,0.1796,0.1782,0.1799,0.1926,0.1898,0.1912,0.1968,0.1998,0.2009,0.2058,0.2028,0.2032,0.2097,0.217,0.2071,0.2069,0.2181,0.2188,0.2193,0.2293,0,0,0,0,0,0,0.1708,0.1722,0.1737,0.1782,0.1804,0.1932,0.1898,0.1912,0.2021,0.2032,0.205,0.2058,0.2032,0.2099,0.2095,0.2166,0.2069,0.2177,0.2184,0.2191,0.2285,0.2301,0.2316,0,0,0,0,0,0.1699,0.1707,0.1733,0.1755,0.181,0.1941,0.1953,0.2034,0.2021,0.2085,0.2076,0.2062,0.2145,0.2099,0.2095,0.2167,0.2173,0.2182,0.2191,0.2278,0.2298,0.2315,0,0,0,0,0,0,0.1664,0.1719,0.1748,0.1777,0.1914,0.197,0.2006,0.2071,0.2098,0.2073,0.2078,0.2087,0.2185,0.216,0.211,0.2232,0.2169,0.2177,0.2237,0.2256,0.2271,0.2246,0.2067,0,0,0,0,0,0.1661,0.1686,0.1779,0.1845,0.1851,0.1928,0.1992,0.2056,0.2101,0.2117,0.2144,0.2155,0.2193,0.2218,0.2238,0.2268,0.2241,0.2327,0.2343,0.2356,0.2339,0.2353,0.2366,0.2224,0.2224,0.2224,0,0,0.1703,0.1731,0.1765,0.1847,0.1874,0.1937,0.1966,0.2063,0.215,0.2114,0.218,0.2211,0.2221,0.2283,0.2324,0.2281,0.2394,0.2367,0.2377,0.2352,0.2363,0.2376,0.2388,0.223,0.2229,0.2228,0,0,0.1781,0.1755,0.1785,0.1838,0.1944,0.1993,0.2051,0.2124,0.2166,0.225,0.2261,0.234,0.237,0.2409,0.2423,0.2532,0.2486,0.2567,0.2603,0.2619,0.2629,0.2637,0.2654,0.2663,0.256,0.2561,0.2561,0,0.1832,0.1823,0.1851,0.1863,0.1895,0.2022,0.2052,0.2129,0.2264,0.2286,0.2302,0.2377,0.2423,0.2493,0.256,0.2566,0.2556,0.2524,0.2634,0.2641,0.2648,0.2663,0.2671,0.2566,0.2566,0.2565,0.2565,0,0.1893,0.1889,0.1886,0.192,0.1993,0.2031,0.2131,0.222,0.2275,0.2362,0.2455,0.2491,0.2549,0.2604,0.2613,0.271,0.2685,0.2659,0.2572,0.2668,0.2679,0.2686,0.2575,0.2573,0.2571,0.2569,0,0,0.1915,0.1925,0.1916,0.1931,0.1968,0.2063,0.2133,0.2253,0.2328,0.244,0.2501,0.2614,0.2654,0.2675,0.2718,0.2742,0.2835,0.273,0.2728,0.2721,0.2866,0.2674,0.2662,0.2815,0.2817,0.2818,0.2865,0,0.1924,0.1967,0.1947,0.2029,0.202,0.2063,0.215,0.2294,0.2379,0.2495,0.2549,0.2652,0.2681,0.2723,0.2761,0.2831,0.2852,0.2824,0.2795,0.2794,0.2589,0.2663,0.2485,0.2494,0.2871,0.2872,0.2872,0,0.1898,0.1936,0.1965,0.2025,0.2013,0.2116,0.2206,0.2311,0.2465,0.2504,0.258,0.2658,0.2777,0.2759,0.2863,0.2841,0.2866,0.2882,0.2884,0.2659,0.2612,0.2456,0.2491,0.2883,0.2882,0.2881,0.2881,0,0.1886,0.1916,0.1951,0.1952,0.2063,0.2096,0.2194,0.2326,0.2392,0.2539,0.2585,0.2704,0.2779,0.2817,0.2879,0.2894,0.2925,0.2951,0.2782,0.277,0.2585,0.2551,0.2976,0.2976,0.2976,0.2976,0.2976,0,0.1842,0.1887,0.1969,0.1998,0.2076,0.2132,0.2226,0.2325,0.2429,0.2498,0.2622,0.2659,0.2796,0.2834,0.2872,0.2825,0.2921,0.2784,0.276,0.2619,0.2589,0.2888,0.2877,0.2978,0.2977,0.2977,0.2976,0,0.1866,0.1889,0.1941,0.2036,0.2069,0.2154,0.226,0.233,0.2429,0.2498,0.2545,0.2682,0.272,0.2773,0.284,0.2803,0.2783,0.2723,0.254,0.249,0.2638,0.2633,0.2603,0.2597,0.2591,0.2587,0.2583,0,0.1891,0.1909,0.1978,0.1988,0.2039,0.2142,0.2188,0.2323,0.2363,0.2472,0.2491,0.2579,0.2568,0.2574,0.2541,0.2512,0.2614,0.2305,0.2295,0.2616,0.2598,0.2601,0.2603,0.2135,0.2128,0.2122,0.2117,0,0.1912,0.1921,0.195,0.1987,0.2033,0.2093,0.2175,0.219,0.2288,0.2314,0.2313,0.2318,0.2337,0.2223,0.2173,0.2142,0.2302,0.2178,0.2569,0.2217,0.2166,0.215,0.217,0.2064,0.207,0.2073,0.2076,0.2078,0.1875,0.1914,0.1911,0.1925,0.1976,0.1997,0.198,0.2016,0.2018,0.1986,0.207,0.1992,0.2039,0.1868,0.1788,0.1756,0.1935,0.1885,0.1909,0.1937,0.1834,0.1771,0.1579,0.1581,0.1583,0.1585,0.1587,0,0.1785,0.1848,0.1852,0.1839,0.1822,0.1928,0.1913,0.1831,0.1723,0.1753,0.1705,0.153,0.1443,0.1498,0.1365,0.134,0.1398,0.1292,0.1382,0.1433,0.1479,0.1358,0.0974,0.0972,0.0971,0.0969,0,0,0.1772,0.172,0.172,0.1635,0.1665,0.1622,0.1583,0.1482,0.145,0.1309,0.1263,0.1365,0.143,0.1182,0.1149,0.104,0.1237,0.0996,0.1488,0.1644,0.1688,0.1815,0.1683,0,0,0,0,0]},{"header":{"parameterUnit":"m.s-1","parameterCategory":2,"la1":30.2991,"la2":30.254,"lo1":-89.0895,"lo2":-89.0444,"dy":0.0017,"dx":0.0017,"nx":28,"ny":28,"refTime":"2025-08-14T21:00:00:Z","depth":"2","parameterNumber":3,"parameterNumberName":"V-component_of_CURRENTS"},"data":[0,0,0,0,0,0,0,0,0,0,0,0,0,0,0,0,0,0,0,0,0,0,0,0,0,0,0,0,0,0,0,0,0,0,0,0,0,0,0,0,0,0,0,0,0,0,0,0,0,0,0,0,0,0,0,0,0,0,0.0134,0.0134,0,0.0143,0.0144,0.0145,0.0136,0.0135,0.0134,0.0133,0.0069,0.0069,0.0068,0,0,0,0,0,0,0,0,0,0,0,0,0,0.0162,0.0162,0.0134,0.0134,0.0133,0.0143,0.0144,0.0145,0.0137,0.0135,0.0133,0.0132,0.007,0.0069,0.0068,0,0,0,0,0,0,0,0,0,0,0,0,0,0.0168,0.0162,0.0135,0.0122,0.0121,0.0143,0.0144,0.0145,0.0137,0.0135,0.0133,0.0131,0.007,0.0069,0.0068,0.0102,0,0,0.0066,0.0066,0,0,0,0,0,0,0,0,0.0168,0.0168,0.0125,0.0123,0.0121,0.0128,0.013,0.0124,0.0137,0.0141,0.0133,0.013,0.0077,0.0076,0.0097,0.0099,0.0096,0.0066,0.0065,0.0065,0.0065,0,0,0,0,0,0,0,0.0167,0.0168,0.0148,0.0124,0.0122,0.0133,0.0133,0.013,0.0126,0.0141,0.0138,0.0123,0.0077,0.0098,0.0095,0.0095,0.0066,0.0065,0.0065,0.0065,0.0093,0.0094,0,0,0,0,0,0,0.0145,0.0168,0.0148,0.0147,0.0129,0.0133,0.0133,0.0136,0.0128,0.0122,0.0125,0.0123,0.01,0.0096,0.0092,0.0101,0.0065,0.0064,0.0064,0.0091,0.0093,0.0094,0,0,0,0,0,0,0.0146,0.0144,0.0147,0.0148,0.0148,0.0133,0.0137,0.0137,0.0137,0.0114,0.0109,0.0121,0.0098,0.0093,0.0074,0.0099,0.0064,0.0063,0.009,0.0092,0.0093,0.0138,0,0,0,0,0,0,0.0148,0.0145,0.0147,0.0148,0.0147,0.0143,0.0138,0.0138,0.0127,0.0124,0.011,0.0104,0.0097,0.0075,0.0073,0.0098,0.0063,0.0088,0.0091,0.0093,0.0135,0.0141,0.0146,0,0,0,0,0,0.0149,0.0161,0.0148,0.0145,0.0148,0.0141,0.0144,0.0134,0.0128,0.0129,0.0118,0.0103,0.0089,0.0075,0.0072,0.0097,0.0087,0.009,0.0093,0.0132,0.014,0.0146,0,0,0,0,0,0,0.0173,0.0161,0.0146,0.0153,0.0134,0.0135,0.0149,0.0129,0.0129,0.0125,0.0108,0.0102,0.0098,0.0091,0.0077,0.0114,0.009,0.0093,0.0121,0.0128,0.0134,0.016,0.0062,0,0,0,0,0,0.0177,0.0179,0.016,0.0158,0.0166,0.0156,0.0153,0.0133,0.0125,0.0124,0.0109,0.0107,0.0116,0.0111,0.011,0.0124,0.0111,0.0143,0.0149,0.0153,0.0175,0.0183,0.0192,0.0103,0.0103,0.0103,0,0,0.0177,0.0172,0.017,0.0162,0.0169,0.018,0.0154,0.0146,0.0148,0.0116,0.0129,0.0116,0.0121,0.0139,0.0139,0.0131,0.0164,0.0157,0.0161,0.018,0.0187,0.0196,0.0203,0.0105,0.0104,0.0104,0,0,0.0204,0.0192,0.0219,0.021,0.0195,0.0186,0.0176,0.0166,0.0166,0.0159,0.0151,0.0154,0.0151,0.0174,0.0185,0.0223,0.0189,0.0216,0.0271,0.0278,0.0286,0.0292,0.0251,0.0254,0.0225,0.0225,0.0225,0,0.0208,0.0236,0.0219,0.0245,0.0249,0.0191,0.0221,0.0212,0.0181,0.0204,0.0162,0.0201,0.0183,0.0246,0.0253,0.0239,0.0214,0.0242,0.0286,0.0292,0.0298,0.0255,0.0257,0.0227,0.0227,0.0227,0.0227,0,0.0252,0.0277,0.0298,0.0313,0.0312,0.0316,0.0297,0.0291,0.027,0.0265,0.0297,0.0278,0.0307,0.0302,0.0285,0.0334,0.029,0.0284,0.0267,0.0309,0.0261,0.0262,0.0231,0.023,0.0229,0.0229,0,0,0.0262,0.0322,0.0327,0.0362,0.0348,0.0354,0.0373,0.0394,0.0423,0.0387,0.0442,0.0447,0.0426,0.0438,0.0417,0.042,0.0413,0.0367,0.0366,0.0323,0.0387,0.0334,0.033,0.0406,0.0407,0.0408,0.0323,0,0.0308,0.0389,0.0395,0.045,0.0502,0.0472,0.05,0.0499,0.0492,0.0515,0.0511,0.0534,0.0481,0.0487,0.0485,0.043,0.0425,0.0434,0.0356,0.0354,0.0301,0.0334,0.0353,0.0278,0.0324,0.0324,0.0324,0,0.0353,0.0409,0.0499,0.0564,0.0584,0.0588,0.0637,0.0646,0.0664,0.0671,0.0689,0.0658,0.0659,0.0601,0.0546,0.0546,0.0478,0.0429,0.0425,0.0371,0.0307,0.0251,0.0278,0.0326,0.0326,0.0326,0.0326,0,0.0389,0.0475,0.0558,0.0572,0.0631,0.0664,0.067,0.0698,0.0739,0.0756,0.0775,0.0768,0.0749,0.0686,0.0558,0.0551,0.0474,0.0457,0.0352,0.0345,0.0347,0.0339,0.0441,0.0441,0.0442,0.0442,0.0442,0,0.0435,0.0492,0.0579,0.0614,0.07,0.0713,0.0788,0.0796,0.0836,0.0881,0.0844,0.0862,0.0769,0.07,0.0591,0.046,0.0498,0.0372,0.0337,0.0357,0.0351,0.0393,0.0389,0.0439,0.0439,0.044,0.0441,0,0.0456,0.0514,0.0609,0.0695,0.0723,0.077,0.084,0.0896,0.0909,0.096,0.0965,0.0932,0.0831,0.0716,0.0596,0.0497,0.0384,0.0333,0.0333,0.0301,0.0235,0.0234,0.0217,0.0215,0.0213,0.0212,0.021,0,0.0479,0.0541,0.0658,0.0717,0.0751,0.083,0.0891,0.0931,0.0978,0.0994,0.1014,0.0945,0.0885,0.0676,0.0517,0.0334,0.0334,0.0228,0.0244,0.0253,0.0221,0.0223,0.0224,0.0241,0.024,0.0239,0.0239,0,0.053,0.0568,0.0649,0.0759,0.0835,0.0928,0.099,0.1038,0.1073,0.1085,0.106,0.101,0.0835,0.0659,0.0428,0.0314,0.0259,0.0205,0.0242,0.0295,0.027,0.0239,0.0241,0.0232,0.0233,0.0233,0.0233,0.0234,0.0566,0.0622,0.072,0.0812,0.0904,0.098,0.1014,0.1073,0.1113,0.1096,0.1073,0.0982,0.0839,0.053,0.0351,0.0182,0.02,0.0138,0.0143,0.0149,0.0168,0.0141,0.0079,0.0079,0.0079,0.0078,0.0078,0,0.0624,0.0676,0.0764,0.0862,0.0927,0.0973,0.106,0.1068,0.1068,0.1087,0.1038,0.0856,0.0685,0.0521,0.0268,0.0109,0.0123,0.0056,0.0121,0.0129,0.0135,0.0157,0.0063,0.0062,0.0062,0.0061,0,0,0.0656,0.0744,0.0774,0.0861,0.0912,0.0964,0.0993,0.1005,0.1019,0.098,0.0943,0.0912,0.0728,0.0536,0.0344,0.0204,0.0198,0.0171,0.0201,0.0309,0.0317,0.02,0.0242,0,0,0,0,0]}],[{"header":{"parameterUnit":"m.s-1","parameterCategory":2,"la1":30.2991,"la2":30.254,"lo1":-89.0895,"lo2":-89.0444,"dy":0.0017,"dx":0.0017,"nx":28,"ny":28,"refTime":"2025-08-14T21:00:00:Z","depth":"4","parameterNumber":2,"parameterNumberName":"U-component_of_CURRENTS"},"data":[0,0,0,0,0,0,0,0,0,0,0,0,0,0,0,0,0,0,0,0,0,0,0,0,0,0,0,0,0,0,0,0,0,0,0,0,0,0,0,0,0,0,0,0,0,0,0,0,0,0,0,0,0,0,0,0,0,0,0.0611,0.0612,0,0.0666,0.0667,0.0667,0.0741,0.0742,0.0743,0.0744,0.0682,0.0679,0.0676,0,0,0,0,0,0,0,0,0,0,0,0,0,0.0613,0.0613,0.0611,0.0612,0.0612,0.0666,0.0667,0.0668,0.0741,0.0742,0.0744,0.0745,0.0683,0.0679,0.0676,0,0,0,0,0,0,0,0,0,0,0,0,0,0.0636,0.0612,0.0611,0.0654,0.0659,0.0666,0.0667,0.0668,0.0741,0.0742,0.0744,0.0746,0.0684,0.068,0.0676,0.0617,0,0,0.0663,0.0662,0,0,0,0,0,0,0,0,0.0634,0.0636,0.0647,0.0651,0.0656,0.0697,0.0645,0.0645,0.074,0.0711,0.0744,0.0746,0.0674,0.0671,0.0681,0.0615,0.0612,0.0663,0.066,0.0659,0.0658,0,0,0,0,0,0,0,0.0633,0.0634,0.0634,0.0648,0.0653,0.0686,0.069,0.0646,0.0681,0.0714,0.0719,0.0722,0.0676,0.0685,0.068,0.0611,0.0663,0.0659,0.0657,0.0655,0.0583,0.0584,0,0,0,0,0,0,0.0619,0.0632,0.0632,0.0636,0.0648,0.0684,0.069,0.0683,0.0684,0.0687,0.0721,0.0725,0.0691,0.0684,0.0677,0.0695,0.0659,0.0655,0.0653,0.0583,0.0583,0.0584,0,0,0,0,0,0,0.0618,0.0618,0.063,0.0635,0.0639,0.0682,0.0675,0.0684,0.0739,0.0691,0.0692,0.0772,0.0692,0.0683,0.0671,0.0689,0.0653,0.0649,0.0582,0.0583,0.0584,0.0672,0,0,0,0,0,0,0.0618,0.0617,0.0621,0.0633,0.0638,0.0652,0.0673,0.0683,0.0735,0.0743,0.0733,0.0728,0.0693,0.0678,0.0667,0.0683,0.0646,0.0581,0.0582,0.0583,0.0669,0.0676,0.0682,0,0,0,0,0,0.0618,0.06,0.0621,0.0622,0.0637,0.0653,0.0659,0.0696,0.0736,0.0755,0.0756,0.0731,0.0677,0.0675,0.0662,0.0677,0.0581,0.0582,0.0583,0.0666,0.0675,0.0682,0,0,0,0,0,0,0.0608,0.0606,0.0629,0.0616,0.0646,0.0665,0.0681,0.0721,0.0742,0.0766,0.0731,0.0723,0.0723,0.0683,0.0682,0.0659,0.0626,0.0625,0.0693,0.0701,0.0707,0.0754,0.0643,0,0,0,0,0,0.0605,0.059,0.0614,0.0608,0.0625,0.0669,0.0689,0.0729,0.0742,0.0759,0.0733,0.0718,0.0709,0.0696,0.0666,0.0645,0.0656,0.0647,0.0654,0.066,0.069,0.0713,0.0725,0.0588,0.0588,0.0588,0,0,0.0598,0.0597,0.0591,0.0606,0.0634,0.0662,0.0686,0.0734,0.0761,0.074,0.0747,0.074,0.0711,0.0698,0.0693,0.0672,0.0708,0.0662,0.0668,0.0694,0.0715,0.0729,0.0741,0.0588,0.0588,0.0588,0,0,0.0575,0.0585,0.0575,0.0608,0.0659,0.0681,0.0707,0.0743,0.0767,0.0782,0.078,0.0801,0.0746,0.0746,0.074,0.0765,0.0748,0.074,0.0806,0.0827,0.0839,0.085,0.0901,0.0915,0.0737,0.0737,0.0737,0,0.0582,0.0571,0.0581,0.0603,0.0632,0.0696,0.0728,0.0754,0.0779,0.0795,0.0795,0.0802,0.0781,0.0805,0.0824,0.0786,0.0799,0.0779,0.0839,0.085,0.086,0.0909,0.0924,0.0742,0.0741,0.0741,0.074,0,0.0562,0.0581,0.0584,0.0623,0.0653,0.0695,0.0737,0.0767,0.0806,0.0835,0.0874,0.0865,0.088,0.0871,0.0862,0.0915,0.0904,0.0853,0.0827,0.088,0.0927,0.0942,0.0748,0.0746,0.0745,0.0744,0,0,0.0539,0.056,0.0578,0.0605,0.0681,0.0704,0.0747,0.0798,0.0852,0.0879,0.0931,0.0951,0.0984,0.0982,0.0972,0.0999,0.1093,0.0966,0.0965,0.1034,0.1167,0.1047,0.1051,0.1045,0.1048,0.105,0.118,0,0.0544,0.0557,0.0579,0.0634,0.0657,0.0727,0.0765,0.083,0.0872,0.0923,0.0973,0.1017,0.1011,0.1044,0.1076,0.1101,0.1132,0.1065,0.1092,0.1094,0.0994,0.1063,0.1057,0.1191,0.1194,0.1196,0.1198,0,0.0548,0.0553,0.0581,0.0645,0.0668,0.0713,0.0803,0.0848,0.0941,0.0986,0.1059,0.1093,0.119,0.1148,0.1253,0.121,0.1207,0.1211,0.1214,0.1085,0.0999,0.1119,0.1224,0.1222,0.122,0.1218,0.1217,0,0.0527,0.0573,0.0584,0.0613,0.0687,0.0725,0.0776,0.0872,0.0935,0.1034,0.1105,0.1197,0.127,0.1301,0.1338,0.1307,0.1422,0.1367,0.1255,0.1248,0.1279,0.1265,0.1409,0.1409,0.1408,0.1408,0.1408,0,0.0528,0.0554,0.0578,0.06,0.0658,0.0717,0.0808,0.087,0.099,0.1079,0.1145,0.1221,0.131,0.1375,0.1382,0.1386,0.1462,0.1303,0.1275,0.1313,0.1302,0.1291,0.1275,0.1413,0.1412,0.1411,0.141,0,0.0515,0.0531,0.0559,0.0619,0.0651,0.0697,0.0835,0.0898,0.1014,0.1128,0.1175,0.1296,0.138,0.1431,0.1494,0.144,0.1446,0.1398,0.1484,0.1453,0.1258,0.1246,0.1338,0.1335,0.1332,0.133,0.1328,0,0.0495,0.0504,0.0564,0.0604,0.0638,0.0719,0.0787,0.0904,0.0968,0.1154,0.1195,0.132,0.1377,0.1412,0.1443,0.146,0.1397,0.1408,0.1306,0.1289,0.1253,0.1244,0.1236,0.1324,0.1323,0.1323,0.1322,0,0.0467,0.0498,0.0522,0.0596,0.0658,0.0723,0.081,0.0864,0.1002,0.1112,0.1207,0.1252,0.1321,0.1361,0.1365,0.1356,0.1424,0.138,0.1384,0.1289,0.1272,0.1238,0.1232,0.1313,0.1314,0.1315,0.1315,0,0.0462,0.0462,0.0509,0.0585,0.0661,0.0708,0.0758,0.0834,0.0919,0.11,0.1125,0.1231,0.1327,0.1305,0.1316,0.1303,0.1267,0.1212,0.1224,0.1235,0.1127,0.1086,0.1076,0,0,0,0,0,0.0451,0.0448,0.0501,0.0568,0.065,0.0693,0.0773,0.082,0.0936,0.0978,0.1059,0.1111,0.1152,0.1193,0.1154,0.1236,0.1255,0.1182,0.1193,0.1262,0.1273,0.1147,0,0,0,0,0,0,0.0441,0.0464,0.0474,0.0552,0.0607,0.067,0.0715,0.0785,0.0807,0.0932,0.0954,0.1043,0.1083,0.1177,0.1141,0.1149,0.1128,0.1239,0.1235,0.1256,0.1266,0.1274,0.1149,0,0,0,0,0]},{"header":{"parameterUnit":"m.s-1","parameterCategory":2,"la1":30.2991,"la2":30.254,"lo1":-89.0895,"lo2":-89.0444,"dy":0.0017,"dx":0.0017,"nx":28,"ny":28,"refTime":"2025-08-14T21:00:00:Z","depth":"4","parameterNumber":3,"parameterNumberName":"V-component_of_CURRENTS"},"data":[0,0,0,0,0,0,0,0,0,0,0,0,0,0,0,0,0,0,0,0,0,0,0,0,0,0,0,0,0,0,0,0,0,0,0,0,0,0,0,0,0,0,0,0,0,0,0,0,0,0,0,0,0,0,0,0,0,0,0.0198,0.0198,0,0.0227,0.0227,0.0228,0.0242,0.0242,0.0241,0.0241,0.0201,0.0201,0.02,0,0,0,0,0,0,0,0,0,0,0,0,0,0.0158,0.0159,0.0198,0.0198,0.0198,0.0226,0.0227,0.0228,0.0242,0.0242,0.0241,0.0241,0.0202,0.0201,0.02,0,0,0,0,0,0,0,0,0,0,0,0,0,0.0183,0.0159,0.0198,0.0205,0.0206,0.0226,0.0227,0.0228,0.0242,0.0242,0.0241,0.0241,0.0202,0.0201,0.02,0.0203,0,0,0.0196,0.0196,0,0,0,0,0,0,0,0,0.0182,0.0185,0.0204,0.0205,0.0206,0.0227,0.0199,0.0215,0.0242,0.0232,0.0241,0.024,0.0201,0.02,0.0213,0.0201,0.02,0.0196,0.0196,0.0195,0.0195,0,0,0,0,0,0,0,0.018,0.0184,0.0213,0.0204,0.0205,0.0208,0.0212,0.0202,0.0221,0.0233,0.0233,0.0231,0.0202,0.0215,0.0212,0.0199,0.0196,0.0195,0.0195,0.0194,0.0158,0.0158,0,0,0,0,0,0,0.017,0.0183,0.0212,0.0213,0.0188,0.0209,0.0213,0.0224,0.0223,0.0222,0.0231,0.0231,0.0217,0.0214,0.0211,0.0195,0.0195,0.0194,0.0194,0.0158,0.0158,0.0158,0,0,0,0,0,0,0.0169,0.0173,0.0211,0.0195,0.0199,0.021,0.0222,0.0224,0.0234,0.0221,0.022,0.0237,0.0216,0.0212,0.0191,0.0194,0.0194,0.0193,0.0159,0.0158,0.0158,0.0176,0,0,0,0,0,0,0.0168,0.0173,0.0182,0.0194,0.02,0.0227,0.0222,0.0225,0.0232,0.0232,0.0226,0.0222,0.0215,0.0192,0.019,0.0193,0.0192,0.0159,0.0158,0.0158,0.0176,0.0176,0.0177,0,0,0,0,0,0.0167,0.0189,0.0183,0.0186,0.0212,0.0227,0.0231,0.0238,0.0232,0.0244,0.0225,0.0222,0.0187,0.0191,0.0188,0.0191,0.0159,0.0159,0.0158,0.0176,0.0176,0.0177,0,0,0,0,0,0,0.0181,0.0192,0.0186,0.0211,0.0215,0.0228,0.0244,0.0238,0.0237,0.023,0.0216,0.0211,0.0196,0.0187,0.0192,0.0177,0.0174,0.0172,0.0188,0.0189,0.0189,0.0199,0.0191,0,0,0,0,0,0.0186,0.0203,0.0206,0.0224,0.023,0.0234,0.0241,0.0238,0.0235,0.0235,0.0221,0.0205,0.0193,0.0184,0.0173,0.0164,0.0143,0.0163,0.0164,0.0164,0.0169,0.0123,0.0119,0.0155,0.0155,0.0155,0,0,0.019,0.0202,0.0208,0.0227,0.0236,0.0246,0.0239,0.0249,0.0243,0.0228,0.0217,0.0205,0.0189,0.018,0.0172,0.0171,0.0144,0.0163,0.0164,0.0168,0.0122,0.0118,0.0115,0.0155,0.0155,0.0155,0,0,0.0214,0.0225,0.0246,0.0252,0.0259,0.0259,0.0258,0.0259,0.025,0.0236,0.0219,0.0203,0.019,0.0177,0.017,0.0163,0.0147,0.0164,0.0176,0.0131,0.0128,0.0125,0.01,0.0095,0.0165,0.0165,0.0165,0,0.0216,0.0248,0.0253,0.0273,0.0278,0.0263,0.0276,0.0265,0.025,0.0239,0.0232,0.0205,0.0189,0.0175,0.0176,0.0165,0.0144,0.0177,0.0132,0.0128,0.0124,0.01,0.0094,0.0166,0.0166,0.0166,0.0166,0,0.0247,0.0274,0.029,0.0307,0.0311,0.0323,0.0301,0.0289,0.0271,0.0257,0.0234,0.021,0.02,0.019,0.0184,0.0157,0.0152,0.0136,0.0132,0.0122,0.0097,0.009,0.0167,0.0167,0.0167,0.0167,0,0,0.025,0.0302,0.0308,0.0324,0.0329,0.0335,0.0318,0.0305,0.0292,0.0267,0.0256,0.0231,0.0223,0.0213,0.0197,0.0159,0.0118,0.0144,0.0141,0.0124,0.0032,0.0053,0.0047,0.0092,0.0091,0.009,0.0027,0,0.0273,0.0327,0.0337,0.0368,0.0391,0.037,0.0362,0.0338,0.0309,0.029,0.0255,0.0247,0.0229,0.0231,0.0188,0.0142,0.0099,0.0137,0.0041,0.0039,0.0061,0.0039,0.0086,0.0022,0.002,0.0019,0.0018,0,0.0298,0.0334,0.0381,0.041,0.0417,0.0425,0.0406,0.0391,0.035,0.0333,0.0308,0.0285,0.0251,0.0227,0.0135,0.0162,0.01,0.0052,0.0048,0.0057,0.0046,0.0031,0.0005,0.0006,0.0007,0.0008,0.0009,0,0.0309,0.036,0.0403,0.0413,0.044,0.0446,0.0445,0.0411,0.0401,0.0363,0.036,0.0308,0.0295,0.0208,0.0127,0.0128,0.0014,-0.0001,-0.0046,-0.0045,-0.0052,-0.0048,-0.009,-0.009,-0.009,-0.0089,-0.0089,0,0.0334,0.0367,0.0418,0.0442,0.0475,0.0476,0.0489,0.0467,0.0452,0.0447,0.0394,0.0378,0.0286,0.0215,0.013,0.0033,0.0013,-0.0045,-0.0064,-0.0041,-0.0036,-0.0057,-0.0052,-0.0092,-0.0091,-0.0091,-0.009,0,0.034,0.0383,0.0429,0.0473,0.049,0.0506,0.0536,0.0531,0.0518,0.0506,0.0506,0.0437,0.035,0.0247,0.011,0.0049,-0.0056,-0.0095,-0.0046,-0.0062,-0.0084,-0.0078,-0.0144,-0.0144,-0.0143,-0.0143,-0.0143,0,0.0351,0.038,0.0445,0.0481,0.0509,0.0543,0.0561,0.0563,0.0555,0.0536,0.0524,0.0459,0.04,0.023,0.0118,-0.0037,-0.0067,-0.0114,-0.0114,-0.008,-0.0092,-0.0086,-0.008,-0.0143,-0.0143,-0.0143,-0.0143,0,0.0353,0.0378,0.0419,0.0493,0.0534,0.0563,0.0588,0.0601,0.0591,0.0591,0.0543,0.0466,0.0364,0.0237,0.0121,0.0002,-0.0073,-0.0113,-0.0114,-0.0115,-0.008,-0.0091,-0.0085,-0.0143,-0.0143,-0.0143,-0.0143,0,0.0347,0.037,0.0431,0.0494,0.0543,0.0564,0.0583,0.0586,0.0589,0.0573,0.0559,0.0457,0.0406,0.0255,0.0142,0.0042,0.0012,-0.0024,-0.0031,-0.0032,0.0021,0.0083,0.0051,0,0,0,0,0,0.0336,0.0372,0.0427,0.049,0.0532,0.0558,0.0588,0.0598,0.0607,0.0576,0.0574,0.048,0.0336,0.0266,0.0168,0.0132,-0.0013,0.0014,-0.0059,-0.0141,-0.0141,-0.0096,0,0,0,0,0,0,0.0335,0.0386,0.042,0.0471,0.0507,0.0536,0.0556,0.0563,0.0546,0.0553,0.0472,0.0455,0.0304,0.0389,0.0164,0.0135,0.0076,-0.0051,-0.0053,-0.0141,-0.0141,-0.0142,-0.0095,0,0,0,0,0]}]]